Location: Nickerson Gardens
(33.9320°N, 118.2484°W)
Time: 05:24:44
(UTC+00:00)

N. Korean satellite - Pass Details

Date: 31 January 2021
Orbit: 451 x 502 km, 97.2° (Epoch: 05 March)

Event Time Altitude Azimuth Distance (km) Brightness Sun altitude
Rises 13:04:37 0° 15° (NNE) 2,473 10.3 -22.1°
Reaches altitude 10° 13:06:41 10° 19° (NNE) 1,592 9.3 -21.7°
Maximum altitude 13:10:04 62° 100° (E) 514 6.8 -21.0°
Drops below altitude 10° 13:13:24 10° 182° (S) 1,575 9.2 -20.3°
Sets 13:15:26 0° 186° (S) 2,444 10.2 -19.9°
